ZL2ARL Weather Reports


time (UTC)temp
C
wind
direction
speed
KPH
gust
KPH
rain 1hr
cm
rain 24hr
cm
rain mn
cm
humidity
%
barometer
mb
20260510043032 10 137 17.7 43.5 0.00 0.00 0.00 80 1002.1
20260510042027 11 143 16.1 37.0 0.00 0.00 0.00 81 1001.9
20260510041022 11 138 16.1 38.6 0.00 0.00 0.00 81 1001.6
20260510040017 11 131 16.1 37.0 0.00 0.00 0.00 82 1001.4
20260510035032 11 136 19.3 41.8 0.00 0.00 0.00 82 1001.2
20260510034027 11 131 22.5 45.1 0.00 0.00 0.00 81 1000.9
20260510033022 12 139 19.3 45.1 0.00 0.00 0.00 80 1000.6
20260510032017 12 124 20.9 43.5 0.00 0.00 0.00 78 1000.4
20260510031032 14 141 20.9 35.4 0.00 0.00 0.00 76 999.7
20260510030027 16 157 17.7 35.4 0.00 0.00 0.00 70 999.5
20260510025042 18 162 12.9 25.7 0.00 0.00 0.00 63 999.4
20260510024037 18 174 11.3 17.7 0.00 0.00 0.00 59 999.0
20260510023032 17 169 12.9 29.0 0.00 0.00 0.00 57 998.6
20260510022027 18 337 9.7 14.5 0.00 0.00 0.00 59 998.0
20260510021022 17 323 12.9 17.7 0.00 0.00 0.00 62 997.9
20260510020037 17 335 12.9 20.9 0.00 0.00 0.00 62 997.8
20260510015033 17 322 12.9 22.5 0.00 0.00 0.00 62 997.7
20260510014048 17 332 14.5 22.5 0.00 0.00 0.00 62 997.7
20260510013043 16 341 12.9 24.1 0.00 0.00 0.00 63 997.5
20260510012018 16 335 16.1 27.4 0.00 0.00 0.00 64 997.7
20260510011053 16 350 20.9 29.0 0.00 0.00 0.00 64 997.7
20260510010028 16 335 14.5 25.7 0.00 0.00 0.00 65 997.7
20260510005023 16 353 19.3 30.6 0.00 0.00 0.00 67 997.5
20260510004059 16 350 17.7 27.4 0.00 0.00 0.00 66 997.7
20260510003034 15 326 19.3 30.6 0.00 0.00 0.00 66 997.7
20260510002029 15 327 24.1 41.8 0.00 0.00 0.00 69 997.5
20260510001024 15 340 25.7 40.2 0.00 0.00 0.00 68 997.6
20260510000019 15 329 20.9 35.4 0.00 0.00 0.00 68 997.8
20260509235035 15 343 22.5 32.2 0.00 0.00 0.00 68 997.8
20260509234029 15 328 22.5 41.8 0.00 0.00 0.00 69 997.7
20260509233025 15 337 25.7 45.1 0.00 0.00 0.00 69 997.8
20260509232020 15 340 24.1 40.2 0.00 0.00 0.00 69 997.7
20260509231035 15 332 27.4 41.8 0.00 0.00 0.00 69 997.8
20260509230030 15 342 27.4 45.1 0.00 0.00 0.00 69 998.0
20260509225026 14 329 25.7 38.6 0.00 0.00 0.00 69 997.8
20260509224040 15 329 25.7 40.2 0.00 0.00 0.00 68 997.9
20260509223016 15 332 24.1 49.9 0.00 0.00 0.00 67 997.9
20260509222035 14 330 22.5 37.0 0.00 0.00 0.00 68 998.0
20260509221026 14 322 25.7 40.2 0.00 0.00 0.00 69 997.9
20260509220021 14 324 19.3 32.2 0.00 0.00 0.00 71 998.1
20260509215016 13 336 22.5 40.2 0.00 0.00 0.00 71 997.9
20260509214032 13 334 27.4 40.2 0.00 0.00 0.00 71 998.0
20260509213027 13 327 20.9 38.6 0.00 0.00 0.00 73 997.9
20260509212022 13 335 20.9 29.0 0.00 0.00 0.00 73 998.1
20260509211017 13 317 17.7 29.0 0.00 0.00 0.00 74 997.8
20260509210032 12 334 27.4 40.2 0.00 0.00 0.00 74 997.8
20260509205047 12 331 24.1 37.0 0.00 0.00 0.00 75 997.9
20260509204022 12 334 14.5 27.4 0.00 0.00 0.00 76 997.8
20260509203018 12 348 17.7 29.0 0.00 0.00 0.00 76 997.9
20260509202033 12 336 20.9 33.8 0.00 0.00 0.00 76 997.8
20260509201028 11 337 17.7 30.6 0.00 0.00 0.00 77 997.6
20260509200023 11 337 20.9 37.0 0.00 0.00 0.00 77 997.7
20260509195038 11 342 16.1 25.7 0.00 0.00 0.00 78 997.9
20260509194033 11 336 16.1 30.6 0.00 0.00 0.00 76 997.8
20260509193028 11 336 20.9 32.2 0.00 0.00 0.00 76 997.6
20260509192023 11 335 24.1 38.6 0.00 0.00 0.00 76 997.3
20260509191018 11 340 19.3 27.4 0.00 0.00 0.00 76 997.6
20260509190035 11 335 14.5 24.1 0.00 0.00 0.00 77 997.8
20260509185049 11 339 16.1 27.4 0.00 0.00 0.00 77 997.4
20260509184024 11 346 16.1 37.0 0.00 0.00 0.00 78 997.3
20260509183039 11 331 14.5 22.5 0.00 0.00 0.00 79 997.2
20260509182034 11 355 16.1 29.0 0.00 0.00 0.00 79 997.3
20260509181029 11 343 14.5 24.1 0.00 0.00 0.00 78 997.3
20260509180025 11 336 20.9 37.0 0.00 0.00 0.00 78 997.4
20260509175020 11 343 24.1 33.8 0.00 0.00 0.00 78 997.3
20260509174036 11 344 22.5 37.0 0.00 0.00 0.00 77 997.2
20260509173030 11 348 22.5 40.2 0.00 0.00 0.00 76 997.1
20260509172025 11 349 22.5 35.4 0.00 0.00 0.00 76 997.3
20260509171021 11 333 19.3 30.6 0.00 0.00 0.00 77 997.4
20260509170056 11 340 20.9 35.4 0.00 0.00 0.00 76 997.1
20260509165031 11 351 24.1 40.2 0.00 0.00 0.00 77 997.3
20260509164026 11 340 16.1 25.7 0.00 0.00 0.00 77 997.3
20260509163021 11 355 17.7 30.6 0.00 0.00 0.00 76 997.2
20260509162016 11 348 20.9 33.8 0.00 0.00 0.00 74 996.9
20260509161051 11 342 19.3 30.6 0.00 0.00 0.00 74 997.0
20260509160026 11 344 19.3 30.6 0.00 0.00 0.00 74 996.9
20260509155021 11 347 19.3 29.0 0.00 0.00 0.00 74 996.9
20260509154016 11 331 20.9 35.4 0.00 0.00 0.00 75 997.0
20260509153051 11 336 20.9 35.4 0.00 0.00 0.00 75 997.1
20260509152026 11 335 32.2 48.3 0.00 0.00 0.00 75 997.1
20260509151021 11 341 27.4 41.8 0.00 0.00 0.00 76 997.2
20260509150016 11 341 20.9 30.6 0.00 0.00 0.00 76 997.2
20260509145032 11 341 17.7 30.6 0.00 0.00 0.00 76 997.3
20260509144027 11 341 20.9 33.8 0.00 0.00 0.00 75 997.4
20260509143022 11 356 25.7 40.2 0.00 0.00 0.00 76 997.4
20260509142057 11 352 22.5 37.0 0.00 0.00 0.00 77 997.8
20260509141032 11 345 20.9 32.2 0.00 0.00 0.00 78 997.9
20260509140027 11 335 19.3 37.0 0.00 0.00 0.00 79 997.7
20260509135023 11 346 24.1 40.2 0.00 0.00 0.00 80 997.9
20260509134017 11 341 22.5 40.2 0.00 0.00 0.00 81 997.8
20260509133032 11 331 22.5 41.8 0.00 0.00 0.00 81 997.8
20260509132027 11 325 22.5 33.8 0.00 0.00 0.00 80 997.9
20260509131023 11 324 24.1 46.7 0.00 0.00 0.00 81 997.6
20260509130018 11 324 25.7 40.2 0.00 0.00 0.00 81 997.6
20260509125033 11 329 24.1 40.2 0.00 0.00 0.00 81 997.6
20260509124028 11 329 19.3 32.2 0.00 0.00 0.00 80 997.7
20260509123023 11 338 24.1 33.8 0.00 0.00 0.00 80 997.5
20260509122038 11 337 27.4 48.3 0.00 0.00 0.00 79 997.3
20260509121034 11 329 24.1 37.0 0.00 0.00 0.00 78 997.5
20260509120029 11 318 25.7 51.5 0.00 0.00 0.00 78 997.9
20260509115024 11 305 33.8 57.9 0.00 0.00 0.00 77 997.9
20260509114019 11 318 24.1 41.8 0.00 0.00 0.00 77 997.9
20260509113034 11 319 25.7 46.7 0.00 0.00 0.00 77 997.8
20260509112029 11 315 29.0 46.7 0.00 0.00 0.00 76 998.0
20260509111024 11 325 25.7 40.2 0.00 0.00 0.00 75 998.0
20260509110019 11 319 22.5 37.0 0.00 0.00 0.00 74 998.1
20260509105035 11 327 20.9 33.8 0.00 0.00 0.00 72 998.0
20260509104030 12 320 25.7 57.9 0.00 0.00 0.00 71 998.2
20260509103025 11 325 22.5 45.1 0.00 0.00 0.00 73 998.2
20260509102020 12 326 22.5 46.7 0.00 0.00 0.00 73 998.1
20260509101035 12 315 27.4 45.1 0.00 0.00 0.00 71 998.3
20260509100030 12 306 20.9 43.5 0.00 0.00 0.00 70 998.2
20260509095025 12 309 27.4 56.3 0.00 0.00 0.00 72 998.1
20260509094020 12 317 24.1 46.7 0.00 0.03 0.00 74 997.8
20260509093035 12 310 27.4 46.7 0.00 0.03 0.00 74 997.9
20260509092030 12 312 29.0 51.5 0.00 0.08 0.00 75 998.0
20260509091025 12 318 22.5 37.0 0.00 0.18 0.00 76 998.0
20260509090100 12 337 19.3 27.4 0.00 0.30 0.00 75 997.9
20260509085035 12 322 24.1 41.8 0.00 0.69 0.00 74 997.8
20260509084030 12 326 20.9 41.8 0.00 0.94 0.00 74 997.5
20260509083025 12 313 29.0 53.1 0.00 1.17 0.00 73 997.3
20260509082020 12 308 33.8 54.7 0.00 1.24 0.00 74 997.5
20260509081035 12 312 33.8 54.7 0.00 1.37 0.00 75 997.5
20260509080030 12 313 35.4 53.1 0.00 1.40 0.00 75 997.3
20260509075025 12 316 37.0 64.4 0.00 1.42 0.00 75 997.1
20260509074020 12 312 38.6 66.0 0.00 1.45 0.00 75 996.9
20260509073055 12 307 32.2 53.1 0.00 1.52 0.00 74 997.1
20260509072030 12 306 33.8 48.3 0.00 1.52 0.00 76 997.4
20260509071045 12 311 37.0 54.7 0.00 1.57 0.00 75 997.3
20260509070021 12 300 40.2 57.9 0.00 1.65 0.00 76 997.5
20260509065016 12 301 35.4 66.0 0.00 1.75 0.00 78 997.4
20260509064031 12 307 30.6 49.9 0.00 1.85 0.00 80 997.2
20260509063026 12 314 30.6 53.1 0.00 1.91 0.00 80 997.0
20260509062021 12 311 29.0 48.3 0.00 1.91 0.00 81 997.1
20260509061017 12 318 30.6 48.3 0.00 1.91 0.00 83 997.2
20260509060032 12 327 24.1 41.8 0.00 1.96 0.00 83 997.2
20260509055026 12 321 35.4 53.1 0.00 1.96 0.00 83 997.1
20260509054021 12 322 24.1 37.0 0.00 1.98 0.00 82 997.1
20260509053036 12 324 25.7 45.1 0.00 1.98 0.00 82 997.1
20260509052030 12 336 25.7 41.8 0.00 1.98 0.00 82 997.2
20260509051025 12 329 24.1 40.2 0.00 1.98 0.00 82 997.2
20260509050019 12 333 24.1 38.6 0.00 1.98 0.00 82 997.0
20260509045034 13 334 25.7 43.5 0.00 1.98 0.00 80 996.9
20260509044028 13 318 29.0 45.1 0.00 1.98 0.00 80 997.1